GW4285 Weather Reports


Display with metric or nautical units.
time (UTC)temp
F
wind
direction
speed
MPH
gust
MPH
rain 1hr
in
rain 24hr
in
rain mn
in
humidity
%
barometer
mb
20260504025709 54 251 0.0 0.0 0.00 0.00 0.00 88 1013.5
20260504025205 54 258 0.0 0.0 0.00 0.00 0.00 87 1013.5
20260504024703 55 259 0.0 1.0 0.00 0.00 0.00 87 1013.4
20260504024159 55 266 4.0 4.0 0.00 0.00 0.00 85 1013.4
20260504023656 55 256 0.0 3.0 0.00 0.00 0.00 84 1013.3
20260504023152 56 245 0.0 4.0 0.00 0.00 0.00 83 1013.2
20260504022648 56 271 3.0 7.0 0.00 0.00 0.00 82 1013.1
20260504022144 56 262 4.0 7.0 0.00 0.00 0.00 82 1013.1
20260504021642 56 249 5.0 10.0 0.00 0.00 0.00 82 1013.0
20260504021139 56 263 4.0 8.0 0.00 0.00 0.00 81 1013.1
20260504020636 56 234 3.0 8.0 0.00 0.00 0.00 81 1013.0
20260504020132 56 268 3.0 10.0 0.00 0.00 0.00 82 1013.2
20260504015628 57 244 6.0 11.0 0.00 0.00 0.00 81 1013.0
20260504015125 57 283 7.0 8.0 0.00 0.00 0.00 79 1013.1
20260504014621 59 243 4.0 7.0 0.00 0.00 0.00 79 1013.1
20260504014118 58 248 1.0 5.0 0.00 0.00 0.00 78 1013.1
20260504013615 59 264 5.0 7.0 0.00 0.00 0.00 77 1013.1
20260504013112 59 230 4.0 8.0 0.00 0.00 0.00 77 1013.1
20260504012610 60 254 1.0 5.0 0.00 0.00 0.00 74 1013.1
20260504012108 59 245 2.0 8.0 0.00 0.00 0.00 77 1013.1
20260504011604 58 240 3.0 8.0 0.00 0.00 0.00 78 1013.0
20260504011100 59 253 7.0 8.0 0.00 0.00 0.00 77 1013.2
20260504010556 61 264 5.0 8.0 0.00 0.00 0.00 73 1013.1
20260504010052 59 252 5.0 10.0 0.00 0.00 0.00 77 1013.1
20260504005549 59 264 4.0 10.0 0.00 0.00 0.00 76 1013.2
20260504005046 60 251 6.0 10.0 0.00 0.00 0.00 74 1013.3
20260504004544 59 240 3.0 10.0 0.00 0.00 0.00 76 1013.3
20260504004041 60 233 3.0 7.0 0.00 0.00 0.00 75 1013.1
20260504003537 60 251 8.0 10.0 0.00 0.00 0.00 75 1013.3
20260504003034 59 266 2.0 3.0 0.00 0.00 0.00 76 1013.3
20260504002531 58 278 8.0 10.0 0.00 0.00 0.00 76 1013.2
20260504002028 58 262 5.0 7.0 0.00 0.00 0.00 77 1013.2
20260504001526 58 238 3.0 7.0 0.00 0.00 0.00 78 1013.3
20260504001022 58 247 3.0 4.0 0.00 0.00 0.00 78 1013.1
20260504000519 58 255 6.0 11.0 0.00 0.00 0.00 78 1013.2
20260504000017 58 254 2.0 7.0 0.00 0.00 0.00 79 1013.1
20260503235515 58 246 1.0 7.0 0.00 0.00 0.00 78 1013.2
20260503235011 58 244 6.0 7.0 0.00 0.00 0.00 77 1013.1
20260503234509 58 257 9.0 11.0 0.00 0.00 0.00 78 1013.1
20260503234007 59 245 2.0 5.0 0.00 0.00 0.00 77 1013.0
20260503233503 59 246 6.0 11.0 0.00 0.00 0.00 77 1012.9
20260503232959 59 257 6.0 11.0 0.00 0.00 0.00 76 1012.9
20260503232456 59 258 3.0 11.0 0.00 0.00 0.00 76 1012.8
20260503231954 59 247 4.0 5.0 0.00 0.00 0.00 75 1012.9
20260503231451 60 257 8.0 11.0 0.00 0.00 0.00 74 1012.9
20260503230947 60 238 3.0 5.0 0.00 0.00 0.00 74 1012.8
20260503230444 60 240 5.0 8.0 0.00 0.00 0.00 73 1012.9
20260503225942 61 247 7.0 14.0 0.00 0.00 0.00 70 1012.8
20260503225438 61 248 2.0 10.0 0.00 0.00 0.00 72 1012.6
20260503224934 61 254 7.0 10.0 0.00 0.00 0.00 70 1012.7
20260503224431 60 244 6.0 8.0 0.00 0.00 0.00 71 1012.7
20260503223929 60 265 7.0 10.0 0.00 0.00 0.00 73 1012.7
20260503223427 60 275 3.0 4.0 0.00 0.00 0.00 74 1012.7
20260503222922 61 235 3.0 8.0 0.00 0.00 0.00 73 1012.7
20260503222421 61 245 1.0 3.0 0.00 0.00 0.00 72 1012.7
20260503221919 59 241 1.0 4.0 0.00 0.00 0.00 73 1012.7
20260503221417 59 255 7.0 12.0 0.00 0.00 0.00 70 1012.7
20260503220913 60 267 6.0 8.0 0.00 0.00 0.00 72 1012.8
20260503220409 60 248 3.0 4.0 0.00 0.00 0.00 72 1012.9
20260503215907 60 234 6.0 11.0 0.00 0.00 0.00 72 1013.0
20260503215404 60 238 3.0 8.0 0.00 0.00 0.00 70 1013.0
20260503214901 61 256 4.0 5.0 0.00 0.00 0.00 70 1013.1
20260503214358 62 251 2.0 4.0 0.00 0.00 0.00 70 1013.0
20260503213855 62 203 1.0 4.0 0.00 0.00 0.00 67 1013.0
20260503213353 62 282 6.0 7.0 0.00 0.00 0.00 67 1012.8
20260503212850 62 212 3.0 4.0 0.00 0.00 0.00 67 1012.9
20260503212348 62 259 6.0 8.0 0.00 0.00 0.00 65 1012.7
20260503211845 62 295 7.0 10.0 0.00 0.00 0.00 66 1012.7
20260503211342 62 269 9.0 11.0 0.00 0.00 0.00 63 1012.7
20260503210836 64 243 1.0 4.0 0.00 0.00 0.00 62 1012.9
20260503210334 65 255 1.0 7.0 0.00 0.00 0.00 61 1012.8
20260503205829 62 197 7.0 11.0 0.00 0.00 0.00 63 1012.6
20260503205326 63 251 2.0 4.0 0.00 0.00 0.00 66 1012.8
20260503204822 64 241 1.0 3.0 0.00 0.00 0.00 64 1012.7
20260503204320 62 253 1.0 7.0 0.00 0.00 0.00 65 1012.8
20260503203817 62 228 5.0 7.0 0.00 0.00 0.00 68 1012.8
20260503203314 61 243 2.0 5.0 0.00 0.00 0.00 70 1012.8
20260503202811 61 244 5.0 7.0 0.00 0.00 0.00 69 1012.9
20260503202309 60 251 1.0 8.0 0.00 0.00 0.00 71 1013.0
20260503201807 60 270 4.0 8.0 0.00 0.00 0.00 71 1012.9
20260503201304 59 239 6.0 8.0 0.00 0.00 0.00 70 1013.0
20260503200801 59 236 3.0 8.0 0.00 0.00 0.00 72 1013.0
20260503200257 59 248 3.0 7.0 0.00 0.00 0.00 72 1013.0
20260503195755 60 252 4.0 8.0 0.00 0.00 0.00 74 1013.1
20260503195251 59 260 5.0 7.0 0.00 0.00 0.00 75 1013.1
20260503194749 59 271 2.0 4.0 0.00 0.00 0.00 75 1013.1
20260503194244 58 250 3.0 7.0 0.00 0.00 0.00 78 1013.2
20260503193741 59 250 3.0 7.0 0.00 0.00 0.00 76 1013.1
20260503193237 59 264 0.0 0.0 0.00 0.00 0.00 75 1013.2
20260503192733 58 248 5.0 5.0 0.00 0.00 0.00 76 1013.2
20260503192228 57 247 0.0 4.0 0.00 0.00 0.00 77 1013.2
20260503191725 57 257 7.0 8.0 0.00 0.00 0.00 75 1013.3
20260503191222 58 246 6.0 8.0 0.00 0.00 0.00 77 1013.3
20260503190719 58 246 0.0 3.0 0.00 0.00 0.00 78 1013.2
20260503190215 57 240 2.0 3.0 0.00 0.00 0.00 79 1013.3
20260503185713 57 249 2.0 3.0 0.00 0.00 0.00 79 1013.2
20260503185208 57 264 3.0 3.0 0.00 0.00 0.00 79 1013.0
20260503184703 58 254 3.0 7.0 0.00 0.00 0.00 79 1013.1
20260503184200 57 241 1.0 3.0 0.00 0.00 0.00 79 1013.1
20260503183656 58 248 4.0 5.0 0.00 0.00 0.00 77 1013.3
20260503183153 59 242 3.0 7.0 0.00 0.00 0.00 75 1013.1
20260503182651 59 290 4.0 4.0 0.00 0.00 0.00 75 1013.2
20260503182150 57 245 2.0 4.0 0.00 0.00 0.00 79 1013.1
20260503181646 56 249 0.0 1.0 0.00 0.00 0.00 80 1013.2
20260503181143 55 245 4.0 8.0 0.00 0.00 0.00 81 1013.1
20260503180640 55 252 4.0 8.0 0.00 0.00 0.00 82 1013.1
20260503180132 54 264 3.0 4.0 0.00 0.00 0.00 82 1013.2
20260503175623 55 278 7.0 10.0 0.00 0.00 0.00 82 1013.3
20260503175120 54 260 8.0 10.0 0.00 0.00 0.00 83 1013.2
20260503174617 54 256 1.0 8.0 0.00 0.00 0.00 85 1013.1
20260503174114 54 249 2.0 5.0 0.00 0.00 0.00 85 1013.3
20260503173609 55 252 3.0 5.0 0.00 0.00 0.00 84 1013.1
20260503173106 56 249 1.0 3.0 0.00 0.00 0.00 83 1013.0
20260503172603 55 267 3.0 4.0 0.00 0.00 0.00 83 1013.0
20260503172100 55 247 2.0 4.0 0.00 0.00 0.00 86 1013.0
20260503171556 55 235 3.0 5.0 0.00 0.00 0.00 86 1012.9
20260503171054 54 246 1.0 4.0 0.00 0.00 0.00 87 1012.8
20260503170549 54 253 1.0 1.0 0.00 0.00 0.00 88 1012.9
20260503150942 52 229 1.0 1.0 0.00 0.00 0.00 94 1012.2
20260503150433 52 247 0.0 3.0 0.00 0.00 0.00 95 1012.2
20260503131326 51 243 0.0 0.0 0.00 0.00 0.00 98 1010.7
20260503130824 51 252 1.0 3.0 0.00 0.00 0.00 98 1010.6
20260503130321 51 238 1.0 1.0 0.00 0.00 0.00 98 1010.6
20260503110709 51 274 0.0 0.0 0.00 0.00 0.00 98 1010.6
20260503110206 51 253 0.0 0.0 0.00 0.00 0.00 98 1010.8
20260503100132 51 238 0.0 0.0 0.00 0.00 0.00 98 1010.6
20260503081516 51 249 0.0 0.0 0.00 0.00 0.00 95 1011.6
20260503081013 51 249 0.0 0.0 0.00 0.00 0.00 95 1011.6
20260503080509 51 248 0.0 0.0 0.00 0.00 0.00 94 1011.5
20260503072443 51 260 0.0 0.0 0.00 0.00 0.00 96 1011.7
20260503071940 51 264 0.0 0.0 0.00 0.00 0.00 96 1011.7
20260503071437 51 264 0.0 0.0 0.00 0.00 0.00 96 1011.7
20260503070933 51 264 0.0 0.0 0.00 0.00 0.00 96 1011.7
20260503070430 51 257 0.0 0.0 0.00 0.00 0.00 96 1011.6
20260503054843 51 231 0.0 0.0 0.00 0.00 0.00 95 1012.1
20260503054339 51 238 0.0 0.0 0.00 0.00 0.00 95 1012.0
20260503053837 51 257 0.0 0.0 0.00 0.00 0.00 94 1012.1
20260503053336 51 247 0.0 0.0 0.00 0.00 0.00 94 1012.2
20260503052831 51 238 0.0 0.0 0.00 0.00 0.00 94 1012.1
20260503052329 51 260 0.0 0.0 0.00 0.00 0.00 94 1012.2
20260503051825 52 247 0.0 0.0 0.00 0.00 0.00 94 1012.3
20260503051321 52 253 0.0 0.0 0.00 0.00 0.00 94 1012.2
20260503050818 52 261 0.0 1.0 0.00 0.00 0.00 94 1012.1
20260503050314 52 247 0.0 0.0 0.00 0.00 0.00 94 1012.2
20260503045812 51 263 0.0 1.0 0.00 0.00 0.00 94 1012.2
20260503045310 51 268 0.0 1.0 0.00 0.00 0.00 93 1012.2
20260503044806 52 243 0.0 0.0 0.00 0.00 0.00 93 1012.1
20260503044303 52 237 0.0 4.0 0.00 0.00 0.00 93 1012.1
20260503043800 52 239 0.0 0.0 0.00 0.00 0.00 93 1012.1
20260503043257 52 254 0.0 1.0 0.00 0.00 0.00 93 1012.2
20260503042753 52 264 0.0 1.0 0.00 0.00 0.00 92 1012.1
20260503042250 52 253 0.0 1.0 0.00 0.00 0.00 92 1012.0
20260503041745 52 223 1.0 1.0 0.00 0.00 0.00 92 1012.0
20260503041244 52 228 2.0 3.0 0.00 0.00 0.00 91 1012.0
20260503040741 52 253 0.0 3.0 0.00 0.00 0.00 91 1011.9
20260503040239 52 255 0.0 1.0 0.00 0.00 0.00 91 1012.0
20260503035735 52 257 0.0 0.0 0.00 0.00 0.00 91 1011.8
20260503035232 52 251 0.0 0.0 0.00 0.00 0.00 91 1011.7
20260503034730 52 245 0.0 1.0 0.00 0.00 0.00 91 1011.7
20260503034226 52 253 0.0 0.0 0.00 0.00 0.00 90 1011.6
20260503033724 52 272 0.0 1.0 0.00 0.00 0.00 90 1011.7
20260503033221 52 259 0.0 1.0 0.00 0.00 0.00 90 1011.6
20260503032720 52 294 0.0 1.0 0.00 0.00 0.00 90 1011.4
20260503032218 52 259 0.0 0.0 0.00 0.00 0.00 90 1011.2
20260503031714 52 246 0.0 1.0 0.00 0.00 0.00 90 1011.5
20260503031213 52 259 2.0 4.0 0.00 0.00 0.00 89 1011.4
20260503030708 52 245 0.0 3.0 0.00 0.00 0.00 90 1011.4
20260503030205 52 237 2.0 4.0 0.00 0.00 0.00 90 1011.4